www.pogodaiklimat.ru

Погода и климат >> Архив погоды >> Украина >> Новая Каховка


ПОГОДА в Новой Каховке

  • Прогноз погоды в Новой Каховке
  • Монитор погоды в Новой Каховке

АРХИВ ПОГОДЫ в Новой Каховке

Время (UTC), дата Ветер
(напр.,м/с)
 
Видим.   Явления Облачность Т
(С)
Тd
(С)
f
(%)
Тe
(С)
Тes
(С)
Комфортность P
(гПа)
Po
(гПа)
Тmin
(С)
Tmax
(С)
R
(мм)
R24
(мм)
S
(см)
00 10.09 В 5 10 км ясно +19.6 +7.3 45 +20 +20 1020.0 1017.0
03 10.09 В 4 10 км ясно +18.2 +9.3 56 +18 +18 1020.0 1017.0
06 10.09 В 4 50 км ясно +20.7 +9.3 48 +22 +25 комфорт 1021.0 1018.0 +17.9
09 10.09 В 5 50 км 1/0
[Ci fib]
+24.5 +5.3 29 +24 +30 комфорт 1021.0 1018.1
12 10.09 СВ 5 50 км ясно +25.8 +8.7 34 +26 +31 жарко 1020.0 1017.1
15 10.09 ЮВ 2 50 км ясно +24.9 +6.6 31 +25 +26 комфорт 1021.0 1018.1
18 10.09 В 1 10 км ясно +20.5 +9.7 50 +23 +23 комфорт 1022.0 1019.0 +26.6
21 10.09 В 4 10 км ясно +21.5 +7.3 40 +22 +22 комфорт 1022.0 1019.1
00 11.09 СВ 5 10 км ясно +20.1 +7.1 43 +21 +21 комфорт 1022.0 1019.0
03 11.09 СВ 4 10 км ясно +18.9 +8.2 50 +19 +19 1023.0 1020.0
06 11.09 В 4 50 км ясно +20.1 +8.1 46 +21 +24 комфорт 1025.0 1022.0 +17.9
09 11.09 В 6 50 км ясно +25.3 +6.0 29 +25 +29 комфорт 1025.0 1022.1
12 11.09 В 6 50 км ясно +26.9 +6.3 27 +26 +29 жарко 1024.0 1021.1
15 11.09 В 4 50 км ясно +26.1 +6.2 28 +26 +26 жарко 1024.0 1021.1
18 11.09 СВ 1 10 км ясно +21.3 +8.9 45 +23 +23 комфорт 1025.0 1022.0 +27.5
21 11.09 СВ 3 10 км ясно +20.7 +11.1 54 +23 +23 комфорт 1025.0 1022.0
00 12.09 СВ 3 10 км ясно +18.9 +9.7 55 +20 +20 1025.0 1022.0
03 12.09 СВ 4 10 км ясно +18.0 +7.4 50 +18 +18 1025.0 1022.0
06 12.09 СВ 4 50 км ясно +21.8 +10.0 47 +23 +26 комфорт 1026.0 1023.0 +16.5
09 12.09 В 4 50 км ясно +27.0 +6.9 28 +27 +34 жарко 1025.0 1022.1
12 12.09 СВ 4 50 км 1/0
[Ci]
+28.3 +8.5 29 +28 +33 жарко 1024.0 1021.1
15 12.09 СВ 2 50 км 4/0
[Ci]
+26.6 +10.3 36 +27 +28 жарко 1023.0 1020.1
18 12.09 штиль 0 10 км ясно +21.0 +9.9 49 +22 +22 комфорт 1025.0 1022.0 +29.3
21 12.09 С 2 10 км ясно +18.0 +7.1 49 +19 +19 1024.0 1021.0
00 13.09 С 4 10 км ясно +18.1 +6.0 45 +18 +18 1024.0 1021.0
03 13.09 СВ 2 10 км ясно +17.6 +11.6 68 +18 +18 1024.0 1021.0
06 13.09 В 2 50 км 1/0
[Ci fib]
+21.5 +8.7 44 +23 +26 комфорт 1025.0 1022.0 +15.6
09 13.09 В 4 50 км 3/0
[Ci fib]
+25.9 +7.5 31 +26 +31 жарко 1024.0 1021.1
12 13.09 В 3 50 км 8/0
[Ci]
+27.3 +7.2 28 +27 +27 жарко 1023.0 1020.1
15 13.09 СВ 1 50 км 3/0
[Ci fib]
+25.9 +6.5 29 +26 +26 жарко 1022.0 1019.1
18 13.09 СВ 2 10 км ясно +22.5 +3.6 29 +22 +22 комфорт 1022.0 1019.1 +27.6
21 13.09 С 1 10 км ясно +17.4 +8.8 57 +18 +18 1022.0 1019.0
00 14.09 ЮЗ 2 10 км ясно +15.4 +6.1 54 +15 +15 1022.0 1019.0
03 14.09 ЮЗ 1 10 км ясно +15.3 +5.2 51 +16 +16 1021.0 1018.0
06 14.09 Ю 1 50 км ясно +20.7 +10.2 51 +24 +28 комфорт 1021.0 1018.0 +13.0
09 14.09 СЗ 3 50 км 3/0
[Ci fib]
+27.3 +7.2 28 +27 +33 жарко 1020.0 1017.1
12 14.09 СЗ 3 50 км 10/6 600 м
[Cb calv Ci sp]
+27.7 +8.1 29 +27 +29 жарко 1019.0 1016.1
15 14.09 С 4 50 км 10/8 600 м
[Cb calv Ci sp]
+25.3 +4.4 26 +25 +25 комфорт 1019.0 1016.1
18 14.09 СВ 3 10 км 10/0
[Ci sp]
+21.7 +11.7 53 +24 +24 комфорт 1021.0 1018.1 +29.1
21 14.09 С 2 10 км ясно +16.6 +8.6 59 +17 +17 1023.0 1020.0
00 15.09 С 3 10 км ясно +12.6 +4.6 58 +11 +11 1024.0 1021.0
03 15.09 С 3 10 км ясно +10.8 +3.4 60 +9 +9 1024.0 1020.9
06 15.09 С 3 50 км 4/0
[Ci sp]
+15.8 +3.9 45 +15 +17 1025.0 1022.0 +10.2
09 15.09 С 2 50 км 3/0
[Ac trans Ci fib]
+21.1 +2.0 28 +21 +30 комфорт 1025.0 1022.0
12 15.09 В 1 50 км 1/0
[Ac trans]
+21.8 +3.0 29 +22 +31 комфорт 1023.0 1020.0
15 15.09 штиль 0 50 км 3/0
[Ci sp]
+22.0 +4.1 31 +22 +23 комфорт 1022.0 1019.1
18 15.09 З 1 10 км ясно +17.2 +4.5 43 +18 +18 1022.0 1019.0 +23.1
21 15.09 З 1 10 км 6/0
[Ci sp]
+13.2 +7.2 67 +13 +13 1021.0 1018.0
00 16.09 З 1 10 км 3/0
[Ci sp]
+11.1 +8.1 82 +11 +11 1020.0 1017.0
03 16.09 СЗ 1 10 км ясно +10.8 +8.7 87 +10 +10 1019.0 1016.0
06 16.09 ЮЗ 1 50 км 1/0
[Ci sp]
+15.8 +8.5 62 +17 +20 1018.0 1015.0 +9.8
09 16.09 ЮЗ 3 50 км 1/0
[Ci fib]
+23.6 +5.9 32 +24 +32 комфорт 1016.0 1013.1
12 16.09 ЮЗ 3 50 км ясно +25.9 +8.8 34 +26 +33 жарко 1014.0 1011.1
15 16.09 З 3 50 км ясно +23.7 +11.1 45 +25 +26 комфорт 1012.0 1009.1
18 16.09 ЮЗ 2 10 км ясно +18.8 +14.5 76 +20 +20 1012.0 1009.1 +26.6

 

Местоположение метеостанции Новая Каховка (Херсонская область, Украина): широта 46.78 долгота 33.37 высота над уровнем моря 25 м.

В архиве по умолчанию представлена погода в Новой Каховке за последнюю неделю. Архивные данные за месяц целиком и за предыдущие месяцы, начиная с января 2011 года, Вы можете получить, выбрав интересующий диапазон дат из раскрывающегося списка и нажав кнопку "Ввод!".


*Определитесь, кто Вы:
робот инопланетянин человек

Внимание! Время в таблицах - всемирное. Для получения местного времени необходимо прибавить поправку, которая равна 2 ч.

Смотрите также архив погоды в соседних городах и на ближайших метеорологических станциях:

Погода в Аскании-Нове (Херсонская область, Украина) (54 км)
Погода в Великой Александровке (Херсонская область, Украина) (60 км)
Погода в Херсоне (Херсонская область, Украина) (63 км)
Погода в Нижних Серогозах (Херсонская область, Украина) (79 км)
Погода в Хорлах (Херсонская область, Украина) (81 км)
Погода в Баштанке (Николаевская область, Украина) (99 км)
Погода в Бехтерах (Херсонская область, Украина) (101 км)
Погода в Ишуни (Крым, Россия) (102 км)
Погода в Николаеве (Николаевская область, Украина) (111 км)
Погода в Раздольном (Крым, Россия) (112 км)

Пояснения к столбцам:

Ветер - указаны скорость ветра в м/с - средняя за 10 мин, порывы в срок и между сроками (в фигурных скобках) и направление, откуда дует ветер: С - северный, СВ - северо-восточный, В - восточный, ЮВ - юго-восточный, Ю - южный, ЮЗ - юго-западный, З - западный, СЗ - северо-западный.
Видимость - горизонтальная дальность видимости в метрах или километрах. При видимости от 1 до 10 км при отсутствии осадков обычно наблюдается дымка, при ухудшении видимости до 1 км и менее - туман. В сухую погоду видимость может ухудшаться дымом, пылью или мглою.
Явления - указаны атмосферные явления, наблюдавшиеся в срок или в последний час перед сроком; фигурными скобками обозначены явления, наблюдавшиеся между сроками (за 1-3 часа до срока); квадратными скобками обозначены град или гололедные отложения с указанием их диаметра в мм.
Облачность - указаны через наклонную черту общая и нижняя облачность в баллах и высота нижней границы облаков в метрах; квадратными скобками обозначены формы облаков: Ci - перистые, Cs - перисто-слоистые, Cc - перисто-кучевые, Ac - высококучевые, As - высокослоистые, Sc - слоисто-кучевые, Ns - слоисто-дождевые, Cu - кучевые, Cb - кучево-дождевые. Подробнее классификацию облаков см. в Атласе облаков (PDF).
T - Температура воздуха - температура, измеренная на высоте 2 м над землей.
Td - Температура точки росы - температура, при понижении до которой содержащийся в воздухе водяной пар достигнет насыщения.
f - Относительная влажность воздуха - влажноcть воздуха, измеренная на высоте 2 м над землей.
Te - Эффективная температура - температура, которую ощущает одетый по сезону человек в тени. Характеристика душности погоды. При расчете учитывается влияние влажности воздуха и скорости ветра на теплоощущения человека.
Tes - Эффективная температура на солнце - температура, которую ощущает человек, с поправкой на солнечный нагрев. Характеристика знойности погоды. Зависит от высоты солнца над горизонтом, облачности и скорости ветра. Ночью, в пасмурную погоду, а также при ветре 12 м/с и более поправка равна нулю.
P - Атмосферное давление - приведенное к уровню моря атмосферное давление.
Po - Атмосферное давление - измеренное на уровне метеостанции атмосферное давление.
Tmin - Минимальная температура - минимум температуры воздуха на высоте 2 м над землей.
Tmax - Максимальная температура - максимум температуры воздуха на высоте 2 м над землей.
R - Количество осадков - Количество выпавших осадков за период времени, мм. При наведении курсора мыши на число - период времени, за который выпало указанное количество осадков.
R24 - Количество осадков - Количество выпавших осадков за 24 часа, мм.
S - Снежный покров - Высота снежного покрова, см. При наведении курсора мыши на число - состояние снежного покрова и степень покрытия местности в баллах.